Location: Krakow
(50.0830°N, 19.9170°E)
Time: 02:16:15
(UTC+01:00)

Vanguard 1 Rocket - Visible Passes

Search period start: 15 December 2025 00:00
Search period end: 25 December 2025 00:00
Orbit: 651 x 4216 km, 34.3° (Epoch: 14 December)

Date Brightness Start Highest point End Pass type
(mag) Time Alt. Az. Time Alt. Az. Time Alt. Az.
17 Dec 9.5 06:22:36 10° S 06:23:49 11° SSE 06:25:02 10° SSE visible
19 Dec 9.3 06:22:31 10° SSW 06:24:03 12° S 06:25:38 10° SSE visible
21 Dec 9.3 06:22:44 10° SSW 06:24:19 12° S 06:25:55 10° SSE visible
22 Dec 9.3 05:11:02 10° SSW 05:12:36 11° S 05:14:07 10° SSE visible
23 Dec 9.6 04:01:50 10° SSE 04:01:50 10° SSE 04:02:06 10° SSE visible
23 Dec 9.2 06:23:12 10° SSW 06:24:34 11° S 06:25:56 10° SSE visible
24 Dec 9.2 05:10:48 10° SSW 05:12:53 13° S 05:14:53 10° SSE visible
